Peotone Weather
Peotone-Weather Station Historical Data
Daily Summary for February 15, 2019 Units:  English    Metric   Both
Daily Weekly Monthly Yearly Custom
  High: Low: Average:
Temperature: 40 °F 32 °F 35.9 °F
Dew Point: 33 °F 24 °F 29.1 °F
Humidity: 85% 62% 76%
Wind Speed: 22mph 8mph 14.3mph
Wind Gust: 36mph - -
Wind- - West
Pressure: 30.24 in 29.65 in -
Precipitation: 0.05 in    
Historical Graphs
 
 
Tabular Data for February 15, 2019
Time Temperature Dew Point Pressure Wind Wind Speed Wind Gust Humidity Rainfall Rate (Hourly) solar
00:04 40 °F 33 °F 29.65 in SW 16 mph 25 mph 74% 0.00 in 0 W/m2
00:09 40 °F 33 °F 29.65 in SW 19 mph 29 mph 75% 0.00 in 0 W/m2
00:14 40 °F 33 °F 29.65 in SW 21 mph 29 mph 74% 0.00 in 0 W/m2
00:19 40 °F 33 °F 29.65 in SW 19 mph 29 mph 74% 0.00 in 0 W/m2
00:24 40 °F 33 °F 29.65 in SW 16 mph 28 mph 75% 0.00 in 0 W/m2
00:29 40 °F 33 °F 29.66 in SW 17 mph 28 mph 75% 0.00 in 0 W/m2
00:34 40 °F 33 °F 29.66 in SW 18 mph 28 mph 75% 0.00 in 0 W/m2
00:39 40 °F 33 °F 29.66 in SW 15 mph 24 mph 75% 0.00 in 0 W/m2
00:44 40 °F 33 °F 29.66 in SW 18 mph 35 mph 75% 0.00 in 0 W/m2
00:49 40 °F 33 °F 29.66 in SW 15 mph 35 mph 75% 0.00 in 0 W/m2
00:54 40 °F 33 °F 29.66 in SW 19 mph 31 mph 75% 0.00 in 0 W/m2
00:59 40 °F 33 °F 29.66 in SW 17 mph 31 mph 75% 0.00 in 0 W/m2
01:04 40 °F 33 °F 29.66 in SW 17 mph 31 mph 75% 0.00 in 0 W/m2
01:09 40 °F 33 °F 29.66 in SW 18 mph 28 mph 75% 0.00 in 0 W/m2
01:14 40 °F 33 °F 29.67 in SW 19 mph 28 mph 75% 0.00 in 0 W/m2
01:19 40 °F 33 °F 29.67 in SW 20 mph 30 mph 75% 0.00 in 0 W/m2
01:24 40 °F 33 °F 29.67 in WSW 18 mph 30 mph 76% 0.00 in 0 W/m2
01:29 39 °F 33 °F 29.67 in SW 19 mph 29 mph 76% 0.00 in 0 W/m2
01:34 39 °F 33 °F 29.67 in SW 17 mph 29 mph 76% 0.00 in 0 W/m2
01:39 39 °F 32 °F 29.68 in SW 16 mph 28 mph 76% 0.00 in 0 W/m2
01:44 39 °F 32 °F 29.68 in SW 15 mph 26 mph 76% 0.00 in 0 W/m2
01:49 39 °F 33 °F 29.69 in SW 18 mph 25 mph 77% 0.00 in 0 W/m2
01:54 39 °F 33 °F 29.68 in SW 15 mph 25 mph 77% 0.00 in 0 W/m2
01:59 39 °F 33 °F 29.69 in SW 18 mph 28 mph 77% 0.00 in 0 W/m2
02:04 39 °F 33 °F 29.69 in SW 16 mph 28 mph 77% 0.00 in 0 W/m2
02:09 39 °F 33 °F 29.69 in WSW 18 mph 26 mph 78% 0.00 in 0 W/m2
02:14 39 °F 33 °F 29.69 in SW 22 mph 30 mph 78% 0.00 in 0 W/m2
02:19 39 °F 32 °F 29.69 in WSW 20 mph 36 mph 78% 0.00 in 0 W/m2
02:24 39 °F 32 °F 29.69 in WSW 19 mph 36 mph 78% 0.00 in 0 W/m2
02:29 39 °F 32 °F 29.70 in SW 17 mph 33 mph 78% 0.00 in 0 W/m2
02:34 39 °F 32 °F 29.70 in WSW 16 mph 26 mph 77% 0.00 in 0 W/m2
02:39 39 °F 32 °F 29.70 in WSW 21 mph 31 mph 76% 0.00 in 0 W/m2
02:44 39 °F 32 °F 29.70 in WSW 17 mph 31 mph 76% 0.00 in 0 W/m2
02:49 39 °F 32 °F 29.71 in WSW 15 mph 25 mph 76% 0.00 in 0 W/m2
02:54 39 °F 32 °F 29.71 in WSW 15 mph 24 mph 76% 0.00 in 0 W/m2
02:59 39 °F 32 °F 29.71 in WSW 14 mph 24 mph 76% 0.00 in 0 W/m2
03:04 38 °F 32 °F 29.71 in WSW 14 mph 23 mph 77% 0.00 in 0 W/m2
03:09 38 °F 32 °F 29.71 in WSW 17 mph 26 mph 77% 0.00 in 0 W/m2
03:14 38 °F 32 °F 29.71 in WSW 17 mph 26 mph 77% 0.00 in 0 W/m2
03:19 38 °F 32 °F 29.72 in WSW 17 mph 26 mph 77% 0.00 in 0 W/m2
03:24 38 °F 32 °F 29.72 in WSW 16 mph 25 mph 77% 0.00 in 0 W/m2
03:29 38 °F 32 °F 29.72 in WSW 15 mph 25 mph 78% 0.00 in 0 W/m2
03:34 38 °F 32 °F 29.72 in WSW 15 mph 25 mph 78% 0.00 in 0 W/m2
03:39 38 °F 32 °F 29.72 in WSW 18 mph 30 mph 79% 0.00 in 0 W/m2
03:44 38 °F 32 °F 29.72 in WSW 14 mph 30 mph 79% 0.00 in 0 W/m2
03:49 38 °F 32 °F 29.72 in WSW 17 mph 30 mph 80% 0.00 in 0 W/m2
03:54 37 °F 32 °F 29.72 in WSW 17 mph 30 mph 80% 0.00 in 0 W/m2
03:59 37 °F 32 °F 29.72 in WSW 16 mph 30 mph 80% 0.00 in 0 W/m2
04:04 37 °F 32 °F 29.72 in WSW 18 mph 30 mph 81% 0.00 in 0 W/m2
04:09 37 °F 32 °F 29.73 in WSW 17 mph 31 mph 81% 0.00 in 0 W/m2
04:14 37 °F 32 °F 29.73 in WSW 15 mph 31 mph 81% 0.00 in 0 W/m2
04:19 37 °F 32 °F 29.73 in WSW 17 mph 25 mph 81% 0.00 in 0 W/m2
04:24 37 °F 32 °F 29.73 in WSW 15 mph 26 mph 81% 0.00 in 0 W/m2
04:29 37 °F 32 °F 29.73 in WSW 14 mph 26 mph 81% 0.00 in 0 W/m2
04:34 37 °F 32 °F 29.73 in WSW 17 mph 25 mph 82% 0.00 in 0 W/m2
04:39 37 °F 32 °F 29.73 in WSW 16 mph 25 mph 82% 0.00 in 0 W/m2
04:44 37 °F 32 °F 29.73 in WSW 14 mph 24 mph 82% 0.00 in 0 W/m2
04:49 37 °F 32 °F 29.74 in WSW 16 mph 25 mph 82% 0.00 in 0 W/m2
04:54 37 °F 32 °F 29.74 in WSW 12 mph 25 mph 82% 0.00 in 0 W/m2
04:59 37 °F 32 °F 29.74 in WSW 14 mph 23 mph 82% 0.00 in 0 W/m2
05:04 37 °F 32 °F 29.75 in WSW 15 mph 23 mph 82% 0.00 in 0 W/m2
05:09 37 °F 32 °F 29.75 in WSW 16 mph 28 mph 83% 0.00 in 0 W/m2
05:14 36 °F 32 °F 29.75 in WSW 15 mph 28 mph 83% 0.00 in 0 W/m2
05:19 36 °F 32 °F 29.75 in WSW 17 mph 25 mph 83% 0.00 in 0 W/m2
05:24 36 °F 32 °F 29.75 in WSW 17 mph 24 mph 84% 0.00 in 0 W/m2
05:29 36 °F 32 °F 29.75 in WSW 15 mph 24 mph 84% 0.00 in 0 W/m2
05:34 36 °F 32 °F 29.76 in WSW 15 mph 25 mph 84% 0.00 in 0 W/m2
05:39 36 °F 32 °F 29.76 in WSW 13 mph 25 mph 84% 0.00 in 0 W/m2
05:44 36 °F 32 °F 29.76 in WSW 14 mph 22 mph 84% 0.00 in 0 W/m2
05:49 36 °F 32 °F 29.76 in WSW 13 mph 22 mph 84% 0.00 in 0 W/m2
05:54 36 °F 32 °F 29.77 in WSW 12 mph 28 mph 84% 0.00 in 0 W/m2
05:59 36 °F 32 °F 29.77 in WSW 13 mph 28 mph 84% 0.00 in 0 W/m2
06:04 36 °F 32 °F 29.77 in WSW 16 mph 23 mph 84% 0.00 in 0 W/m2
06:09 36 °F 32 °F 29.78 in WSW 13 mph 23 mph 84% 0.00 in 0 W/m2
06:14 36 °F 32 °F 29.78 in WSW 14 mph 23 mph 84% 0.00 in 0 W/m2
06:19 36 °F 32 °F 29.78 in WSW 14 mph 22 mph 84% 0.00 in 0 W/m2
06:24 36 °F 32 °F 29.78 in WSW 12 mph 20 mph 84% 0.00 in 0 W/m2
06:29 36 °F 31 °F 29.78 in WSW 13 mph 21 mph 84% 0.01 in 0 W/m2
06:34 36 °F 31 °F 29.79 in WSW 13 mph 22 mph 84% 0.01 in 0 W/m2
06:39 36 °F 31 °F 29.79 in WSW 11 mph 22 mph 84% 0.01 in 0 W/m2
06:44 36 °F 31 °F 29.79 in WSW 11 mph 17 mph 84% 0.01 in 0 W/m2
06:49 36 °F 31 °F 29.79 in WSW 11 mph 17 mph 84% 0.01 in 0 W/m2
06:54 36 °F 31 °F 29.79 in WSW 12 mph 21 mph 84% 0.01 in 0 W/m2
06:59 36 °F 31 °F 29.79 in West 11 mph 21 mph 84% 0.01 in 0 W/m2
07:04 36 °F 31 °F 29.79 in WSW 13 mph 20 mph 85% 0.01 in 0 W/m2
07:09 35 °F 31 °F 29.80 in West 14 mph 20 mph 85% 0.01 in 0 W/m2
07:14 35 °F 31 °F 29.80 in West 14 mph 22 mph 84% 0.01 in 0 W/m2
07:19 35 °F 31 °F 29.80 in WSW 14 mph 22 mph 84% 0.01 in 0 W/m2
07:24 35 °F 31 °F 29.81 in West 14 mph 28 mph 84% 0.01 in 0 W/m2
07:29 35 °F 31 °F 29.81 in WSW 14 mph 28 mph 84% 0.01 in 5 W/m2
07:34 35 °F 31 °F 29.81 in West 14 mph 23 mph 83% 0.01 in 7 W/m2
07:39 35 °F 31 °F 29.81 in West 12 mph 23 mph 83% 0.00 in 9 W/m2
07:44 35 °F 31 °F 29.81 in West 12 mph 21 mph 83% 0.00 in 11 W/m2
07:49 35 °F 31 °F 29.82 in West 13 mph 21 mph 83% 0.00 in 12 W/m2
07:54 35 °F 31 °F 29.82 in West 13 mph 21 mph 83% 0.00 in 12 W/m2
07:59 35 °F 31 °F 29.82 in West 14 mph 23 mph 83% 0.00 in 18 W/m2
08:04 35 °F 31 °F 29.82 in West 16 mph 24 mph 83% 0.00 in 18 W/m2
08:09 35 °F 30 °F 29.82 in West 14 mph 24 mph 83% 0.00 in 16 W/m2
08:14 35 °F 30 °F 29.83 in West 16 mph 23 mph 82% 0.00 in 21 W/m2
08:19 35 °F 30 °F 29.83 in West 14 mph 23 mph 82% 0.00 in 25 W/m2
08:24 35 °F 30 °F 29.83 in WSW 16 mph 24 mph 82% 0.00 in 25 W/m2
08:29 35 °F 30 °F 29.84 in WSW 14 mph 24 mph 82% 0.01 in 25 W/m2
08:34 35 °F 30 °F 29.84 in West 13 mph 21 mph 82% 0.01 in 21 W/m2
08:39 35 °F 30 °F 29.85 in West 16 mph 24 mph 82% 0.01 in 21 W/m2
08:44 35 °F 30 °F 29.85 in West 13 mph 24 mph 82% 0.01 in 28 W/m2
08:49 35 °F 30 °F 29.85 in West 13 mph 22 mph 82% 0.01 in 28 W/m2
08:54 35 °F 30 °F 29.86 in WSW 13 mph 21 mph 82% 0.01 in 33 W/m2
08:59 35 °F 30 °F 29.86 in West 12 mph 20 mph 83% 0.01 in 35 W/m2
09:04 34 °F 30 °F 29.86 in West 13 mph 21 mph 83% 0.01 in 42 W/m2
09:09 34 °F 30 °F 29.86 in WSW 14 mph 24 mph 83% 0.01 in 53 W/m2
09:14 34 °F 30 °F 29.86 in WSW 12 mph 24 mph 83% 0.01 in 63 W/m2
09:19 35 °F 30 °F 29.87 in WSW 13 mph 23 mph 83% 0.01 in 77 W/m2
09:24 35 °F 30 °F 29.87 in West 15 mph 24 mph 83% 0.01 in 77 W/m2
09:29 34 °F 30 °F 29.87 in WSW 12 mph 24 mph 83% 0.01 in 67 W/m2
09:34 34 °F 30 °F 29.88 in WSW 13 mph 21 mph 83% 0.01 in 67 W/m2
09:39 34 °F 30 °F 29.88 in WSW 13 mph 21 mph 83% 0.01 in 63 W/m2
09:44 34 °F 30 °F 29.89 in West 13 mph 21 mph 83% 0.01 in 76 W/m2
09:49 34 °F 30 °F 29.89 in West 12 mph 21 mph 83% 0.01 in 70 W/m2
09:54 34 °F 30 °F 29.89 in WSW 14 mph 21 mph 84% 0.01 in 90 W/m2
09:59 34 °F 30 °F 29.90 in WSW 13 mph 21 mph 84% 0.01 in 97 W/m2
10:04 34 °F 30 °F 29.90 in WSW 14 mph 23 mph 84% 0.02 in 97 W/m2
10:09 34 °F 30 °F 29.90 in WSW 13 mph 23 mph 84% 0.02 in 76 W/m2
10:14 34 °F 30 °F 29.91 in West 15 mph 23 mph 84% 0.02 in 95 W/m2
10:19 34 °F 30 °F 29.91 in West 13 mph 23 mph 84% 0.02 in 90 W/m2
10:24 34 °F 30 °F 29.91 in WSW 14 mph 22 mph 84% 0.02 in 109 W/m2
10:29 34 °F 30 °F 29.92 in West 15 mph 23 mph 84% 0.02 in 83 W/m2
10:34 34 °F 30 °F 29.92 in West 13 mph 23 mph 84% 0.02 in 54 W/m2
10:39 34 °F 30 °F 29.92 in West 15 mph 22 mph 84% 0.02 in 47 W/m2
10:44 34 °F 30 °F 29.92 in West 14 mph 25 mph 84% 0.02 in 40 W/m2
10:49 34 °F 30 °F 29.92 in West 15 mph 25 mph 84% 0.01 in 42 W/m2
10:54 34 °F 30 °F 29.93 in West 13 mph 24 mph 84% 0.01 in 46 W/m2
10:59 34 °F 30 °F 29.92 in West 17 mph 24 mph 84% 0.01 in 40 W/m2
11:04 34 °F 30 °F 29.93 in West 16 mph 25 mph 84% 0.01 in 47 W/m2
11:09 34 °F 30 °F 29.93 in West 17 mph 28 mph 84% 0.01 in 53 W/m2
11:14 34 °F 29 °F 29.93 in West 18 mph 29 mph 83% 0.00 in 51 W/m2
11:19 34 °F 29 °F 29.94 in West 16 mph 29 mph 83% 0.00 in 47 W/m2
11:24 34 °F 29 °F 29.94 in West 16 mph 28 mph 83% 0.00 in 47 W/m2
11:29 34 °F 29 °F 29.94 in West 15 mph 28 mph 83% 0.00 in 56 W/m2
11:34 34 °F 29 °F 29.94 in West 16 mph 23 mph 83% 0.00 in 58 W/m2
11:39 34 °F 29 °F 29.94 in West 15 mph 24 mph 82% 0.00 in 62 W/m2
11:44 34 °F 29 °F 29.94 in WSW 17 mph 26 mph 82% 0.00 in 62 W/m2
11:49 34 °F 29 °F 29.94 in West 16 mph 26 mph 82% 0.00 in 62 W/m2
11:54 34 °F 29 °F 29.95 in West 16 mph 28 mph 82% 0.00 in 62 W/m2
11:59 34 °F 29 °F 29.95 in West 16 mph 28 mph 82% 0.00 in 63 W/m2
12:04 34 °F 29 °F 29.95 in West 17 mph 26 mph 82% 0.00 in 62 W/m2
12:09 34 °F 29 °F 29.95 in West 14 mph 24 mph 82% 0.00 in 62 W/m2
12:14 34 °F 29 °F 29.96 in West 15 mph 26 mph 81% 0.00 in 67 W/m2
12:19 34 °F 29 °F 29.96 in West 14 mph 26 mph 81% 0.00 in 62 W/m2
12:24 34 °F 29 °F 29.96 in West 15 mph 22 mph 81% 0.00 in 67 W/m2
12:29 34 °F 29 °F 29.97 in West 17 mph 25 mph 80% 0.00 in 70 W/m2
12:34 34 °F 29 °F 29.97 in West 15 mph 25 mph 80% 0.00 in 77 W/m2
12:39 35 °F 29 °F 29.97 in West 16 mph 25 mph 80% 0.00 in 77 W/m2
12:44 35 °F 29 °F 29.98 in West 15 mph 25 mph 80% 0.00 in 67 W/m2
12:49 35 °F 29 °F 29.98 in West 15 mph 24 mph 80% 0.00 in 62 W/m2
12:54 35 °F 29 °F 29.98 in West 14 mph 22 mph 80% 0.00 in 74 W/m2
12:59 35 °F 29 °F 29.98 in West 15 mph 28 mph 80% 0.00 in 74 W/m2
13:04 35 °F 29 °F 29.98 in West 14 mph 28 mph 79% 0.00 in 79 W/m2
13:09 35 °F 29 °F 29.98 in West 15 mph 26 mph 78% 0.00 in 76 W/m2
13:14 35 °F 29 °F 29.98 in West 16 mph 28 mph 78% 0.00 in 79 W/m2
13:19 35 °F 29 °F 29.99 in West 17 mph 29 mph 78% 0.00 in 84 W/m2
13:24 35 °F 29 °F 29.99 in West 14 mph 29 mph 78% 0.00 in 111 W/m2
13:29 35 °F 29 °F 29.99 in West 14 mph 24 mph 77% 0.00 in 130 W/m2
13:34 35 °F 29 °F 29.99 in WSW 13 mph 24 mph 77% 0.00 in 127 W/m2
13:39 35 °F 29 °F 29.99 in WSW 15 mph 24 mph 77% 0.00 in 118 W/m2
13:44 35 °F 29 °F 29.99 in West 15 mph 28 mph 77% 0.00 in 111 W/m2
13:49 35 °F 29 °F 29.99 in West 14 mph 28 mph 76% 0.00 in 83 W/m2
13:54 35 °F 29 °F 29.99 in West 17 mph 26 mph 76% 0.00 in 83 W/m2
13:59 35 °F 28 °F 29.99 in West 16 mph 26 mph 75% 0.00 in 88 W/m2
14:04 35 °F 28 °F 29.99 in West 17 mph 26 mph 75% 0.00 in 93 W/m2
14:09 35 °F 28 °F 30.00 in West 16 mph 25 mph 74% 0.00 in 93 W/m2
14:14 35 °F 28 °F 30.00 in West 17 mph 26 mph 74% 0.00 in 114 W/m2
14:19 35 °F 28 °F 30.00 in West 17 mph 26 mph 74% 0.01 in 111 W/m2
14:24 35 °F 28 °F 30.00 in West 18 mph 31 mph 74% 0.01 in 105 W/m2
14:29 35 °F 28 °F 30.00 in West 18 mph 31 mph 74% 0.01 in 132 W/m2
14:34 35 °F 28 °F 30.00 in West 17 mph 24 mph 75% 0.01 in 167 W/m2
14:39 35 °F 28 °F 30.00 in West 16 mph 24 mph 75% 0.01 in 148 W/m2
14:44 36 °F 28 °F 30.01 in West 17 mph 25 mph 73% 0.01 in 98 W/m2
14:49 35 °F 28 °F 30.01 in West 18 mph 25 mph 74% 0.01 in 118 W/m2
14:54 36 °F 28 °F 30.01 in West 16 mph 25 mph 74% 0.01 in 137 W/m2
14:59 36 °F 28 °F 30.01 in West 18 mph 26 mph 73% 0.01 in 120 W/m2
15:04 36 °F 28 °F 30.01 in West 17 mph 26 mph 73% 0.01 in 120 W/m2
15:09 36 °F 28 °F 30.02 in West 17 mph 24 mph 73% 0.01 in 86 W/m2
15:14 35 °F 28 °F 30.02 in West 17 mph 26 mph 73% 0.01 in 76 W/m2
15:19 35 °F 28 °F 30.02 in West 16 mph 26 mph 73% 0.01 in 56 W/m2
15:24 35 °F 28 °F 30.03 in West 18 mph 26 mph 73% 0.01 in 51 W/m2
15:29 35 °F 27 °F 30.03 in West 16 mph 26 mph 73% 0.00 in 47 W/m2
15:34 35 °F 28 °F 30.03 in West 15 mph 26 mph 73% 0.00 in 53 W/m2
15:39 35 °F 28 °F 30.04 in West 17 mph 29 mph 73% 0.00 in 56 W/m2
15:44 35 °F 27 °F 30.04 in West 17 mph 31 mph 73% 0.00 in 60 W/m2
15:49 35 °F 28 °F 30.04 in West 15 mph 31 mph 73% 0.00 in 67 W/m2
15:54 35 °F 28 °F 30.05 in West 16 mph 23 mph 73% 0.00 in 88 W/m2
15:59 35 °F 28 °F 30.05 in West 16 mph 23 mph 73% 0.00 in 88 W/m2
16:04 35 °F 28 °F 30.05 in West 15 mph 23 mph 73% 0.00 in 65 W/m2
16:09 35 °F 28 °F 30.06 in West 14 mph 28 mph 73% 0.00 in 95 W/m2
16:14 35 °F 27 °F 30.06 in West 19 mph 28 mph 72% 0.00 in 95 W/m2
16:19 35 °F 27 °F 30.06 in West 17 mph 26 mph 72% 0.00 in 127 W/m2
16:24 35 °F 27 °F 30.06 in West 14 mph 25 mph 71% 0.00 in 121 W/m2
16:29 36 °F 27 °F 30.06 in West 15 mph 21 mph 71% 0.00 in 116 W/m2
16:34 36 °F 28 °F 30.07 in West 15 mph 25 mph 71% 0.00 in 121 W/m2
16:39 36 °F 28 °F 30.07 in WSW 17 mph 25 mph 72% 0.00 in 118 W/m2
16:44 36 °F 28 °F 30.07 in West 15 mph 24 mph 72% 0.00 in 125 W/m2
16:49 36 °F 28 °F 30.07 in West 18 mph 28 mph 72% 0.00 in 105 W/m2
16:54 36 °F 28 °F 30.08 in West 18 mph 28 mph 72% 0.00 in 141 W/m2
16:59 36 °F 28 °F 30.08 in West 17 mph 25 mph 72% 0.00 in 141 W/m2
17:04 36 °F 28 °F 30.08 in West 17 mph 29 mph 72% 0.00 in 141 W/m2
17:09 36 °F 28 °F 30.08 in West 15 mph 29 mph 72% 0.00 in 109 W/m2
17:14 36 °F 28 °F 30.08 in West 13 mph 23 mph 72% 0.00 in 118 W/m2
17:19 36 °F 28 °F 30.09 in West 16 mph 26 mph 71% 0.00 in 132 W/m2
17:24 36 °F 28 °F 30.09 in West 12 mph 26 mph 71% 0.00 in 104 W/m2
17:29 37 °F 28 °F 30.09 in West 14 mph 24 mph 71% 0.00 in 276 W/m2
17:34 37 °F 28 °F 30.09 in West 13 mph 24 mph 70% 0.00 in 276 W/m2
17:39 38 °F 29 °F 30.09 in West 14 mph 26 mph 70% 0.00 in 163 W/m2
17:44 38 °F 29 °F 30.09 in West 14 mph 26 mph 69% 0.00 in 148 W/m2
17:49 38 °F 28 °F 30.10 in West 13 mph 21 mph 69% 0.00 in 121 W/m2
17:54 38 °F 28 °F 30.10 in West 10 mph 20 mph 69% 0.00 in 107 W/m2
17:59 37 °F 28 °F 30.10 in West 11 mph 20 mph 69% 0.00 in 127 W/m2
18:04 37 °F 28 °F 30.10 in West 12 mph 22 mph 69% 0.00 in 127 W/m2
18:09 37 °F 28 °F 30.11 in West 12 mph 22 mph 68% 0.00 in 100 W/m2
18:14 37 °F 28 °F 30.11 in West 11 mph 21 mph 68% 0.00 in 46 W/m2
18:19 37 °F 28 °F 30.11 in West 11 mph 18 mph 68% 0.00 in 51 W/m2
18:24 38 °F 28 °F 30.11 in West 11 mph 21 mph 67% 0.00 in 35 W/m2
18:29 38 °F 28 °F 30.11 in West 11 mph 21 mph 67% 0.00 in 30 W/m2
18:34 37 °F 27 °F 30.11 in West 11 mph 18 mph 67% 0.00 in 25 W/m2
18:39 37 °F 27 °F 30.12 in West 11 mph 18 mph 67% 0.00 in 19 W/m2
18:44 37 °F 27 °F 30.12 in West 10 mph 17 mph 67% 0.00 in 14 W/m2
18:49 37 °F 27 °F 30.12 in West 11 mph 17 mph 66% 0.00 in 12 W/m2
18:54 37 °F 27 °F 30.12 in West 10 mph 17 mph 66% 0.00 in 11 W/m2
18:59 37 °F 27 °F 30.13 in West 10 mph 15 mph 66% 0.00 in 5 W/m2
19:04 37 °F 27 °F 30.13 in West 10 mph 15 mph 66% 0.00 in 0 W/m2
19:09 37 °F 27 °F 30.13 in West 8 mph 15 mph 66% 0.00 in 0 W/m2
19:14 37 °F 27 °F 30.13 in West 9 mph 13 mph 66% 0.00 in 0 W/m2
19:19 37 °F 27 °F 30.14 in West 9 mph 14 mph 66% 0.00 in 0 W/m2
19:24 37 °F 26 °F 30.14 in West 10 mph 16 mph 65% 0.00 in 0 W/m2
19:29 37 °F 26 °F 30.14 in West 9 mph 16 mph 65% 0.00 in 0 W/m2
19:34 37 °F 26 °F 30.14 in West 9 mph 14 mph 65% 0.00 in 0 W/m2
19:39 36 °F 26 °F 30.14 in WSW 10 mph 16 mph 65% 0.00 in 0 W/m2
19:44 36 °F 26 °F 30.15 in West 10 mph 16 mph 65% 0.00 in 0 W/m2
19:49 37 °F 26 °F 30.15 in West 8 mph 14 mph 64% 0.00 in 0 W/m2
19:54 37 °F 26 °F 30.15 in West 9 mph 14 mph 64% 0.00 in 0 W/m2
19:59 37 °F 25 °F 30.16 in West 11 mph 17 mph 63% 0.00 in 0 W/m2
20:04 37 °F 25 °F 30.16 in West 12 mph 22 mph 62% 0.00 in 0 W/m2
20:09 37 °F 25 °F 30.16 in West 13 mph 22 mph 62% 0.00 in 0 W/m2
20:14 37 °F 25 °F 30.16 in West 10 mph 23 mph 62% 0.00 in 0 W/m2
20:19 36 °F 25 °F 30.17 in West 10 mph 17 mph 63% 0.00 in 0 W/m2
20:24 36 °F 25 °F 30.17 in West 11 mph 21 mph 63% 0.00 in 0 W/m2
20:29 36 °F 25 °F 30.17 in West 10 mph 21 mph 63% 0.00 in 0 W/m2
20:34 36 °F 25 °F 30.17 in West 11 mph 17 mph 63% 0.00 in 0 W/m2
20:39 36 °F 25 °F 30.17 in West 12 mph 17 mph 63% 0.00 in 0 W/m2
20:44 36 °F 25 °F 30.18 in West 12 mph 20 mph 64% 0.00 in 0 W/m2
20:49 36 °F 25 °F 30.18 in West 12 mph 24 mph 64% 0.00 in 0 W/m2
20:54 36 °F 25 °F 30.18 in West 11 mph 24 mph 64% 0.00 in 0 W/m2
20:59 36 °F 25 °F 30.18 in West 12 mph 22 mph 64% 0.00 in 0 W/m2
21:04 35 °F 25 °F 30.18 in West 14 mph 23 mph 65% 0.00 in 0 W/m2
21:09 35 °F 25 °F 30.18 in West 15 mph 24 mph 66% 0.00 in 0 W/m2
21:14 35 °F 26 °F 30.19 in West 14 mph 24 mph 67% 0.00 in 0 W/m2
21:19 35 °F 26 °F 30.19 in WNW 16 mph 24 mph 68% 0.00 in 0 W/m2
21:24 35 °F 26 °F 30.19 in West 13 mph 23 mph 68% 0.00 in 0 W/m2
21:29 35 °F 26 °F 30.19 in WNW 14 mph 21 mph 69% 0.00 in 0 W/m2
21:34 35 °F 26 °F 30.20 in WNW 12 mph 21 mph 69% 0.00 in 0 W/m2
21:39 35 °F 26 °F 30.19 in WNW 15 mph 20 mph 69% 0.00 in 0 W/m2
21:44 35 °F 25 °F 30.20 in WNW 14 mph 22 mph 69% 0.00 in 0 W/m2
21:49 34 °F 25 °F 30.20 in West 13 mph 24 mph 69% 0.00 in 0 W/m2
21:54 34 °F 25 °F 30.20 in West 12 mph 24 mph 70% 0.00 in 0 W/m2
21:59 34 °F 25 °F 30.20 in WNW 13 mph 23 mph 69% 0.00 in 0 W/m2
22:04 34 °F 25 °F 30.20 in West 12 mph 23 mph 70% 0.00 in 0 W/m2
22:09 34 °F 25 °F 30.21 in WNW 13 mph 22 mph 70% 0.00 in 0 W/m2
22:14 34 °F 25 °F 30.21 in WNW 14 mph 22 mph 70% 0.00 in 0 W/m2
22:19 34 °F 25 °F 30.21 in WNW 12 mph 22 mph 70% 0.00 in 0 W/m2
22:24 34 °F 25 °F 30.21 in WNW 12 mph 18 mph 70% 0.00 in 0 W/m2
22:29 33 °F 25 °F 30.21 in WNW 14 mph 20 mph 70% 0.00 in 0 W/m2
22:34 33 °F 25 °F 30.22 in West 14 mph 22 mph 70% 0.00 in 0 W/m2
22:39 33 °F 25 °F 30.22 in West 13 mph 22 mph 71% 0.00 in 0 W/m2
22:44 33 °F 25 °F 30.22 in WNW 13 mph 21 mph 71% 0.00 in 0 W/m2
22:49 33 °F 25 °F 30.22 in West 11 mph 18 mph 71% 0.00 in 0 W/m2
22:54 33 °F 25 °F 30.22 in WNW 12 mph 17 mph 71% 0.00 in 0 W/m2
22:59 33 °F 25 °F 30.22 in WNW 12 mph 18 mph 72% 0.00 in 0 W/m2
23:04 33 °F 25 °F 30.22 in WNW 12 mph 18 mph 72% 0.00 in 0 W/m2
23:09 33 °F 25 °F 30.23 in WNW 11 mph 16 mph 72% 0.00 in 0 W/m2
23:14 33 °F 25 °F 30.23 in West 12 mph 21 mph 72% 0.00 in 0 W/m2
23:19 32 °F 24 °F 30.23 in West 10 mph 21 mph 72% 0.00 in 0 W/m2
23:24 32 °F 25 °F 30.23 in WNW 9 mph 16 mph 73% 0.00 in 0 W/m2
23:29 32 °F 25 °F 30.23 in WNW 10 mph 16 mph 73% 0.00 in 0 W/m2
23:34 32 °F 25 °F 30.23 in WNW 8 mph 16 mph 73% 0.00 in 0 W/m2
23:39 32 °F 25 °F 30.23 in WNW 8 mph 15 mph 73% 0.00 in 0 W/m2
23:44 32 °F 25 °F 30.23 in WNW 9 mph 14 mph 73% 0.00 in 0 W/m2
23:49 32 °F 25 °F 30.23 in WNW 8 mph 14 mph 73% 0.00 in 0 W/m2
23:54 32 °F 25 °F 30.23 in WNW 10 mph 16 mph 73% 0.00 in 0 W/m2
23:59 32 °F 25 °F 30.24 in WNW 8 mph 16 mph 73% 0.00 in 0 W/m2
Peotne Weather
Compliments of Weather Underground - 4 mb